Regional Weather Roundup
Issued by NWS Charleston, WV

Home | Current Version | Previous Version | Graphics & Text | Print | Product List | Glossary On
Versions: 1 2 3 4 5 6 7 8 9 10 11 12 13 14 15 16 17 18 19 20 21 22 23 24 25 26 27 28 29 30 31 32 33 34 35 36 37 38 39 40 41 42 43 44 45 46 47 48 49 50
112
ASUS41 KRLX 082110
RWRRLX
West Virginia Regional Weather Roundup
National Weather Service Charleston WV
400 PM EST MON FEB 08 2016

Note: "fair" indicates few or no clouds below 12,000 feet with no
significant weather and/or obstructions to visibility.

WVZ003-082200-
Northern Panhandle of West Virginia

CITY           SKY/WX    TMP DP  RH WIND       PRES   REMARKS
WHEELING       LGT SNOW  34  31  88 SW6G16    29.57R FOG
$$

WVZ009-082200-
Northwest West Virginia

CITY           SKY/WX    TMP DP  RH WIND       PRES   REMARKS
PARKERSBURG    LGT RAIN  38  35  89 W3        29.64R FOG
$$

WVZ006-082200-
Western West Virginia

CITY           SKY/WX    TMP DP  RH WIND       PRES   REMARKS
HUNTINGTON     CLOUDY    37  33  85 SW7       29.64R
$$

WVZ015-082200-
West Central West Virginia

CITY           SKY/WX    TMP DP  RH WIND       PRES   REMARKS
CHARLESTON     PTSUNNY   44  26  49 W8G16     29.59R
$$

WVZ022-031-082200-
North Central West Virginia

CITY           SKY/WX    TMP DP  RH WIND       PRES   REMARKS
CLARKSBURG     PTSUNNY   38  35  89 S6        29.59R
MORGANTOWN     LGT RAIN  38  32  79 S7        29.59F
$$

WVZ025-035-042-045-082200-
Southern West Virginia

CITY           SKY/WX    TMP DP  RH WIND       PRES   REMARKS
BECKLEY        PTSUNNY   39  22  50 CALM      29.55F
LOGAN          SNOW      34  32  93 SW12G21   29.62R VSB 1/2
BLUEFIELD      PTSUNNY   39  24  55 SW13      29.55F
LEWISBURG      CLOUDY    37  34  89 CALM      29.58F
$$

WVZ047-082200-
Northern Mountains of West Virginia

CITY           SKY/WX    TMP DP  RH WIND       PRES   REMARKS
ELKINS         CLOUDY    36  31  82 SE3       29.58S
$$

WVZ052-082200-
Eastern Panhandle of West Virginia

CITY           SKY/WX    TMP DP  RH WIND       PRES   REMARKS
MARTINSBURG    CLOUDY    42  23  46 E3        29.64F
PETERSBURG     CLOUDY    46  28  50 CALM      29.60R
$$




USA.gov is the U.S. government's official web portal to all federal, state and local government web resources and services.